User: anonymous   Login
Location: Mentone
(34.5413°N, 85.5351°W)
Time: 09:23:26
(UTC-05:00)
Language:

ERBS - Orbit

View from above orbital plane
View from above orbital plane
View from above satellite
View from above satellite

Ground track
Ground track

The orbit data is extracted from the following two-line orbital elements,

1 15354U 84108B   15213.83066113  .00006599  00000-0  19240-3 0  9997
2 15354 057.0095 195.8516 0008240 233.1383 126.8914 15.36582623692579
Epoch (UTC): 01 August 2015 19:56:09
Eccentricity: 0.0008240
inclination: 57.0095°
perigee height: 450 km
apogee height: 462 km
right ascension of ascending node: 195.8516°
argument of perigee: 233.1383°
revolutions per day: 15.36582623
mean anomaly at epoch: 126.8914°
orbit number at epoch: 69257

The dashed part of the orbit path shows where the satellite is in the earth's shadow,  

DLR